Weather reports worldwide

Advertisment
Jersey Airport, United Kingdom (3895): temperature & dewpoint: 18.05.2018 07:00:00 - 24.05.2018 07:00:00 (BST)Jersey Airport, United Kingdom (3895): temperature -20cm & temperature -100cm: 18.05.2018 07:00:00 - 24.05.2018 07:00:00 (BST)Jersey Airport, United Kingdom (3895): wind speed: 18.05.2018 07:00:00 - 24.05.2018 07:00:00 (BST)Jersey Airport, United Kingdom (3895): wind direction: 18.05.2018 07:00:00 - 24.05.2018 07:00:00 (BST)Jersey Airport, United Kingdom (3895): reduced air pressure: 18.05.2018 07:00:00 - 24.05.2018 07:00:00 (BST)Jersey Airport, United Kingdom (3895): visibility: 18.05.2018 07:00:00 - 24.05.2018 07:00:00 (BST)Jersey Airport, United Kingdom (3895): sunshine duration: 18.05.2018 07:00:00 - 24.05.2018 07:00:00 (BST)Jersey Airport, United Kingdom (3895): precipitation: 18.05.2018 07:00:00 - 24.05.2018 07:00:00 (BST)
Date & Time tt [°C] td [°C] tt -20cm [°C] tt -100cm [°C] ff [km/h] ff [kn] dd ppp [hPa] vv [km] sd [min] rr [mm]
24.05.2018 07:00:00 12,4 11,1 - - 8 4 ENE 1019,1 4,0 0 0,0
24.05.2018 06:00:00 12,5 11,0 - - 11 6 NE 1018,7 6 0 0,0
24.05.2018 05:00:00 12,4 10,8 - - 8 4 NNE 1019,0 4,8 0 0,0
24.05.2018 04:00:00 12,4 11,1 - - 8 4 NNE 1019,5 5 0 0,0
24.05.2018 03:00:00 13,0 11,6 - - 8 4 NE 1019,8 7 0 0,0
24.05.2018 02:00:00 13,2 11,7 - - 9 5 NE 1020,1 8 0 0,0
24.05.2018 01:00:00 13,3 11,5 - - 15 8 ENE 1020,1 10 - 0,0
24.05.2018 00:00:00 13,3 11,5 - - 15 8 ENE 1020,3 10 0 0,0
23.05.2018 23:00:00 13,1 11,2 - - 21 11 ENE 1020,5 10 0 0,0
23.05.2018 22:00:00 13,2 10,9 - - 21 11 ENE 1020,9 10 0 0,0
23.05.2018 21:00:00 13,5 10,6 - - 21 11 E 1020,4 10 0 0,0
23.05.2018 20:00:00 14,8 10,6 - - 13 7 NE 1020,5 10 12 0,0
23.05.2018 19:00:00 15,5 10,2 - - 16 9 NE 1020,1 10 54 0,0
23.05.2018 18:00:00 16,4 10,5 - - 15 8 NNE 1020,2 10 60 0,0
23.05.2018 17:00:00 17,0 9,9 - - 18 10 NE 1020,4 10 60 0,0
23.05.2018 16:00:00 18,1 10,7 - - 16 9 NNE 1020,7 10 60 0,0
23.05.2018 15:00:00 17,5 10,4 - - 21 11 NNE 1021,0 10 60 0,0
23.05.2018 14:00:00 17,8 10,2 - - 21 11 NNE 1021,0 19 60 0,0
23.05.2018 13:00:00 17,7 10,4 - - 21 11 NE 1021,2 10 60 0,0
23.05.2018 12:00:00 17,2 10,5 - - 22 12 ENE 1021,4 10 60 0,0
23.05.2018 11:00:00 16,0 10,1 - - 18 10 NNE 1021,4 10 60 0,0
23.05.2018 10:00:00 15,7 10,0 15,0 13,7 22 12 NNE 1021,3 10 60 0,0
23.05.2018 09:00:00 14,8 9,5 - - 21 11 NE 1021,2 10 60 0,0
23.05.2018 08:00:00 14,3 10,3 - - 16 9 ENE 1020,9 10 60 0,0
23.05.2018 07:00:00 13,2 10,6 - - 21 11 ENE 1020,5 8 24 0,0
23.05.2018 06:00:00 12,2 9,8 - - 15 8 ENE 1019,8 8 0 0,0
23.05.2018 05:00:00 12,6 9,5 - - 13 7 NE 1019,3 10 0 0,0
23.05.2018 04:00:00 12,3 9,0 - - 9 5 ENE 1019,2 10 0 0,0
23.05.2018 03:00:00 13,8 9,6 - - 15 8 NE 1019,2 15 0 0,0
23.05.2018 02:00:00 14,3 10,0 - - 16 9 NE 1019,0 17 0 0,0
23.05.2018 01:00:00 13,3 10,2 - - 15 8 NNE 1019,1 10 - 0,0
23.05.2018 00:00:00 13,4 10,0 - - 15 8 NNE 1018,9 10 0 0,0
22.05.2018 23:00:00 13,5 9,8 - - 15 8 NNE 1018,8 10 0 0,0
22.05.2018 22:00:00 14,5 9,4 - - 15 8 N 1018,5 10 0 0,0
22.05.2018 21:00:00 14,8 9,7 - - 15 8 N 1017,9 10 24 0,0
22.05.2018 20:00:00 15,6 10,3 - - 15 8 N 1017,4 10 60 0,0
22.05.2018 19:00:00 17,0 10,8 - - 18 10 N 1016,9 10 60 0,0
22.05.2018 18:00:00 17,6 11,2 - - 18 10 N 1016,7 10 30 0,0
22.05.2018 17:00:00 16,5 10,7 - - 24 13 NNE 1016,7 10 6 0,0
22.05.2018 16:00:00 17,4 9,8 - - 22 12 NNE 1016,5 10 24 0,0
22.05.2018 15:00:00 17,3 10,0 - - 24 13 N 1016,6 10 60 0,0
22.05.2018 14:00:00 17,1 10,8 - - 18 10 NNE 1016,4 10 60 0,0
22.05.2018 13:00:00 17,6 11,0 - - 15 8 N 1016,2 10 60 0,0
22.05.2018 12:00:00 16,9 11,2 - - 13 7 N 1016,1 10 60 0,0
22.05.2018 11:00:00 16,6 12,0 - - 9 5 NE 1015,9 10 18 0,0
22.05.2018 10:00:00 15,2 11,0 15,2 13,7 18 10 NNE 1015,5 10 18 0,0
22.05.2018 09:00:00 13,4 10,9 - - 15 8 N 1015,4 10 0 0,0
22.05.2018 08:00:00 14,5 11,6 - - 11 6 N 1015,1 8 42 0,0
22.05.2018 07:00:00 13,2 11,2 - - 8 4 N 1014,8 7 6 0,0
22.05.2018 06:00:00 12,1 10,4 - - 16 9 NNE 1014,4 8 0 0,0
22.05.2018 05:00:00 12,0 10,2 - - 8 4 NW 1014,4 7 0 0,0
22.05.2018 04:00:00 12,5 10,1 - - 11 6 NNE 1014,4 10 0 0,0
22.05.2018 03:00:00 12,3 10,0 - - 15 8 NNE 1014,5 10 0 0,0
22.05.2018 02:00:00 12,4 9,6 - - 15 8 NNE 1014,7 10 0 0,0
22.05.2018 01:00:00 12,1 9,4 - - 11 6 NNE 1014,7 10 - 0,0
22.05.2018 00:00:00 12,5 9,6 - - 11 6 NNE 1015,0 10 0 0,0
21.05.2018 23:00:00 12,3 9,9 - - 13 7 NNE 1015,3 10 0 0,0
21.05.2018 22:00:00 13,1 9,9 - - 13 7 NNE 1015,1 10 0 0,0
21.05.2018 21:00:00 14,5 10,2 - - 9 5 NE 1014,4 10 24 0,0
21.05.2018 20:00:00 16,9 10,2 - - 11 6 NNE 1014,1 10 60 0,0
21.05.2018 19:00:00 17,7 10,9 - - 11 6 NNE 1013,7 10 60 0,0
21.05.2018 18:00:00 18,0 11,5 - - 16 9 NE 1013,4 10 60 0,0
21.05.2018 17:00:00 17,6 11,4 - - 18 10 NNE 1013,3 10 60 0,0
21.05.2018 16:00:00 18,2 11,8 - - 16 9 NNE 1013,7 10 60 0,0
21.05.2018 15:00:00 18,9 11,2 - - 15 8 NNE 1014,0 10 60 0,0
21.05.2018 14:00:00 18,7 10,8 - - 18 10 NE 1014,0 8 60 0,0
21.05.2018 13:00:00 18,7 12,0 - - 16 9 NNE 1014,0 7 60 0,0
21.05.2018 12:00:00 17,1 11,9 - - 13 7 NNE 1014,4 6 60 0,0
21.05.2018 11:00:00 17,5 11,5 - - 15 8 NNE 1014,4 7 60 0,0
21.05.2018 10:00:00 17,2 11,3 14,7 13,5 13 7 NE 1014,5 7 60 0,0
21.05.2018 09:00:00 15,3 10,4 - - 18 10 NE 1014,9 6 60 0,0
21.05.2018 08:00:00 15,7 10,4 - - 16 9 ENE 1014,8 7 60 0,0
21.05.2018 07:00:00 14,3 9,4 - - 22 12 ENE 1015,0 8 18 0,0
21.05.2018 06:00:00 12,8 9,2 - - 24 13 E 1015,0 8 0 0,0
21.05.2018 05:00:00 13,1 9,9 - - 26 14 E 1015,1 7 0 0,0
21.05.2018 04:00:00 12,7 10,5 - - 24 13 E 1015,4 6 0 0,0
21.05.2018 03:00:00 12,5 10,0 - - 22 12 E 1015,9 7 0 0,0
21.05.2018 02:00:00 11,8 9,6 - - 21 11 E 1016,4 7 0 0,0
21.05.2018 01:00:00 12,7 9,5 - - 22 12 E 1016,8 8 - 0,0
21.05.2018 00:00:00 12,4 9,4 - - 26 14 ENE 1017,2 7 0 0,0
20.05.2018 23:00:00 12,0 9,1 - - 26 14 ENE 1017,7 6 0 0,0
20.05.2018 22:00:00 11,7 9,3 - - 24 13 E 1018,2 6 0 0,0
20.05.2018 21:00:00 12,8 8,6 - - 16 9 ENE 1017,8 10 24 0,0
20.05.2018 20:00:00 14,5 9,0 - - 11 6 NE 1017,6 10 60 0,0
20.05.2018 19:00:00 15,7 8,7 - - 18 10 ENE 1017,9 10 60 0,0
20.05.2018 18:00:00 16,6 8,4 - - 21 11 ENE 1018,1 10 60 0,0
20.05.2018 17:00:00 17,1 10,5 - - 16 9 NE 1018,3 10 60 0,0
20.05.2018 16:00:00 17,6 11,2 - - 15 8 NNE 1019,0 10 60 0,0
20.05.2018 15:00:00 17,5 10,6 - - 15 8 NE 1019,9 10 60 0,0
20.05.2018 14:00:00 16,7 10,4 - - 15 8 NE 1020,4 10 60 0,0
20.05.2018 13:00:00 16,5 10,5 - - 15 8 ENE 1021,2 10 60 0,0
20.05.2018 12:00:00 16,9 10,4 - - 11 6 W 1021,4 10 60 0,0
20.05.2018 11:00:00 15,3 10,4 - - 9 5 E 1021,5 10 60 0,0
20.05.2018 10:00:00 13,1 11,1 14,2 13,2 16 9 E 1021,9 8 48 0,0
20.05.2018 09:00:00 10,4 10,0 - - 16 9 E 1022,0 1,1 0 0,0
20.05.2018 08:00:00 9,6 9,2 - - 21 11 E 1022,1 0,7 0 0,0
20.05.2018 07:00:00 9,4 9,0 - - 16 9 E 1021,8 3,0 24 0,0
20.05.2018 06:00:00 8,6 8,2 - - 18 10 ENE 1021,5 3,8 0 0,0
20.05.2018 05:00:00 7,4 6,9 - - 21 11 E 1021,7 4,3 0 0,0
20.05.2018 04:00:00 8,1 7,7 - - 24 13 E 1021,9 5 0 0,0
20.05.2018 03:00:00 8,3 7,7 - - 21 11 E 1022,2 6 0 0,0
20.05.2018 02:00:00 8,5 7,8 - - 22 12 E 1022,4 7 0 0,0
20.05.2018 01:00:00 8,0 6,6 - - 18 10 E 1022,7 10 - 0,0
20.05.2018 00:00:00 8,8 6,8 - - 15 8 ENE 1022,9 10 0 0,0
19.05.2018 23:00:00 9,7 5,7 - - 13 7 ENE 1022,9 10 0 0,0
19.05.2018 22:00:00 10,4 5,3 - - 13 7 ENE 1022,8 10 0 0,0
19.05.2018 21:00:00 12,3 5,8 - - 11 6 ENE 1022,3 10 36 0,0
19.05.2018 20:00:00 14,1 4,1 - - 18 10 E 1022,0 10 60 0,0
19.05.2018 19:00:00 15,6 5,9 - - 11 6 NE 1022,2 10 60 0,0
19.05.2018 18:00:00 15,5 8,4 - - 13 7 N 1022,5 10 60 0,0
19.05.2018 17:00:00 15,3 8,7 - - 16 9 NNE 1022,8 10 60 0,0
19.05.2018 16:00:00 15,7 8,5 - - 18 10 N 1023,3 10 60 0,0
19.05.2018 15:00:00 16,2 8,4 - - 15 8 NNE 1023,6 10 60 0,0
19.05.2018 14:00:00 16,0 8,0 - - 15 8 NNE 1023,9 10 60 0,0
19.05.2018 13:00:00 15,8 8,2 - - 13 7 NE 1024,0 10 60 0,0
19.05.2018 12:00:00 15,4 7,5 - - 13 7 NNE 1024,3 10 60 0,0
19.05.2018 11:00:00 15,1 6,8 - - 8 4 N 1024,3 10 60 0,0
19.05.2018 10:00:00 14,2 7,0 14,0 13,2 9 5 E 1024,3 10 60 0,0
19.05.2018 09:00:00 13,4 8,0 - - 11 6 E 1024,3 10 60 0,0
19.05.2018 08:00:00 12,1 7,9 - - 11 6 E 1024,2 10 60 0,0
19.05.2018 07:00:00 10,2 8,2 - - 9 5 NE 1023,9 10 30 0,0
19.05.2018 06:00:00 8,5 7,0 - - 13 7 NE 1023,9 10 0 0,0
19.05.2018 05:00:00 8,5 6,7 - - 13 7 NE 1023,7 10 0 0,0
19.05.2018 04:00:00 8,5 6,9 - - 13 7 NE 1023,9 10 0 0,0
19.05.2018 03:00:00 8,4 6,8 - - 13 7 ENE 1023,9 10 0 0,0
19.05.2018 02:00:00 7,6 6,3 - - 15 8 E 1024,3 10 0 0,0
19.05.2018 01:00:00 8,0 5,5 - - 15 8 E 1024,3 10 - 0,0
19.05.2018 00:00:00 8,8 5,8 - - 13 7 ENE 1024,5 10 0 0,0
18.05.2018 23:00:00 8,8 5,6 - - 11 6 ENE 1024,4 10 0 0,0
18.05.2018 22:00:00 9,8 5,0 - - 11 6 ENE 1024,4 10 0 0,0
18.05.2018 21:00:00 11,3 5,7 - - 13 7 ENE 1024,1 10 30 0,0
18.05.2018 20:00:00 12,2 6,2 - - 16 9 NE 1023,9 10 36 0,0
18.05.2018 19:00:00 12,5 7,6 - - 16 9 NNE 1024,2 10 60 0,0
18.05.2018 18:00:00 13,3 7,5 - - 18 10 NNE 1024,1 10 60 0,0
18.05.2018 17:00:00 13,9 7,8 - - 21 11 NNE 1024,1 10 54 0,0
18.05.2018 16:00:00 14,1 7,9 - - 21 11 N 1024,2 10 54 0,0
18.05.2018 15:00:00 15,9 6,6 - - 16 9 NNE 1024,2 10 60 0,0
18.05.2018 14:00:00 14,7 6,1 - - 16 9 ENE 1024,4 10 60 0,0
18.05.2018 13:00:00 13,9 4,9 - - 18 10 ENE 1024,9 10 60 0,0
18.05.2018 12:00:00 14,2 5,0 - - 21 11 NE 1024,8 10 60 0,0
18.05.2018 11:00:00 12,4 5,4 - - 18 10 NE 1025,2 10 60 0,0
18.05.2018 10:00:00 12,3 6,6 14,0 13,2 22 12 ENE 1025,3 10 60 0,0
18.05.2018 09:00:00 11,7 7,3 - - 24 13 E 1025,3 10 60 0,0
18.05.2018 08:00:00 10,2 6,8 - - 26 14 E 1025,5 10 60 0,0
18.05.2018 07:00:00 9,3 6,7 - - 22 12 E 1025,1 10 36 0,0

tt = temperature
td = dewpoint
tt -20cm = temperature -20cm
tt -100cm = temperature -100cm
ff = wind speed
dd = wind direction
ppp = reduced air pressure
vv = visibility
sd = sunshine duration
rr = precipitation

Next stations